C6040 KSAN-KLAX

Flight info

Callsign C6040
Flight time N/A
Altitude VFR/005
Route N
Aircraft H60/M-VGD/C

Departure

Time N/A
Airport San Diego International Airport (KSAN)

Arrival

Time 2026-04-26 01:13
Airport Los Angeles International Airport (KLAX)
Time Latitude Longitude Altitude Speed Heading
2026-04-26 00:25 32.79131 -117.25613 201 ft 170 kts 348°
2026-04-26 00:25 32.80202 -117.26086 212 ft 157 kts 324°
2026-04-26 00:26 32.80991 -117.26923 221 ft 154 kts 323°
2026-04-26 00:26 32.81824 -117.27714 196 ft 157 kts 318°
2026-04-26 00:26 32.82816 -117.28211 120 ft 165 kts
2026-04-26 00:26 32.83998 -117.28200 158 ft 176 kts 11°
2026-04-26 00:27 32.84985 -117.27443 232 ft 170 kts 78°
2026-04-26 00:27 32.85206 -117.26120 301 ft 150 kts 36°
2026-04-26 00:27 32.86152 -117.25588 254 ft 158 kts
2026-04-26 00:27 32.87272 -117.25292 178 ft 174 kts 13°
2026-04-26 00:28 32.88471 -117.25308 149 ft 176 kts 349°
2026-04-26 00:28 32.89706 -117.25417 166 ft 170 kts 352°
2026-04-26 00:28 32.90808 -117.25662 218 ft 158 kts 344°
2026-04-26 00:28 32.91914 -117.25939 119 ft 161 kts 352°
2026-04-26 00:29 32.92986 -117.26060 182 ft 157 kts 350°
2026-04-26 00:29 32.94041 -117.26272 217 ft 154 kts 347°
2026-04-26 00:29 32.95045 -117.26622 298 ft 148 kts 340°
2026-04-26 00:29 32.96073 -117.26920 241 ft 158 kts 349°
2026-04-26 00:30 32.97156 -117.27077 223 ft 157 kts 350°
2026-04-26 00:30 32.98215 -117.27320 238 ft 154 kts 347°
2026-04-26 00:30 32.99226 -117.27592 220 ft 147 kts 348°
2026-04-26 00:30 33.00212 -117.27851 232 ft 144 kts 349°
2026-04-26 00:31 33.01190 -117.28102 209 ft 144 kts 342°
2026-04-26 00:31 33.02089 -117.28597 217 ft 140 kts 333°
2026-04-26 00:31 33.02964 -117.29109 218 ft 140 kts 334°
2026-04-26 00:31 33.03839 -117.29667 208 ft 144 kts 336°
2026-04-26 00:32 33.04811 -117.30026 213 ft 146 kts 349°
2026-04-26 00:32 33.05776 -117.30352 204 ft 142 kts 345°
2026-04-26 00:32 33.07696 -117.31107 143 ft 152 kts 347°
2026-04-26 00:33 33.08716 -117.31374 189 ft 145 kts 347°
2026-04-26 00:33 33.09667 -117.31791 217 ft 150 kts 342°
2026-04-26 00:33 33.10628 -117.32244 254 ft 146 kts 341°
2026-04-26 00:33 33.11590 -117.32702 179 ft 149 kts 339°
2026-04-26 00:34 33.12443 -117.33329 257 ft 140 kts 330°
2026-04-26 00:34 33.13293 -117.33877 219 ft 138 kts 339°
2026-04-26 00:34 33.14163 -117.34345 212 ft 137 kts 338°
2026-04-26 00:34 33.14978 -117.34940 207 ft 136 kts 332°
2026-04-26 00:35 33.15782 -117.35529 212 ft 135 kts 329°
2026-04-26 00:35 33.16573 -117.36126 211 ft 134 kts 323°
2026-04-26 00:35 33.17345 -117.36744 208 ft 134 kts 323°
2026-04-26 00:35 33.18098 -117.37401 207 ft 134 kts 321°
2026-04-26 00:36 33.18859 -117.38066 167 ft 141 kts 321°
2026-04-26 00:36 33.19659 -117.38744 212 ft 142 kts 321°
2026-04-26 00:36 33.20457 -117.39458 219 ft 143 kts 320°
2026-04-26 00:36 33.21229 -117.40165 209 ft 138 kts 320°
2026-04-26 00:37 33.21984 -117.40846 210 ft 135 kts 320°
2026-04-26 00:37 33.22691 -117.41567 215 ft 133 kts 314°
2026-04-26 00:37 33.23318 -117.42370 212 ft 132 kts 319°
2026-04-26 00:37 33.24130 -117.42955 204 ft 140 kts 329°
2026-04-26 00:38 33.24977 -117.43490 204 ft 136 kts 329°
2026-04-26 00:38 33.25780 -117.44074 211 ft 135 kts 325°
2026-04-26 00:38 33.26576 -117.44672 205 ft 135 kts 325°
2026-04-26 00:38 33.27369 -117.45261 210 ft 134 kts 326°
2026-04-26 00:39 33.28139 -117.45894 209 ft 134 kts 323°
2026-04-26 00:39 33.28901 -117.46534 209 ft 134 kts 322°
2026-04-26 00:39 33.29667 -117.47173 209 ft 134 kts 321°
2026-04-26 00:39 33.30368 -117.47907 204 ft 134 kts 315°
2026-04-26 00:40 33.31056 -117.48640 207 ft 132 kts 315°
2026-04-26 00:40 33.31753 -117.49358 208 ft 133 kts 318°
2026-04-26 00:40 33.32466 -117.50056 213 ft 133 kts 318°
2026-04-26 00:40 33.33179 -117.50758 206 ft 133 kts 318°
2026-04-26 00:41 33.33874 -117.51478 204 ft 132 kts 315°
2026-04-26 00:41 33.34510 -117.52269 206 ft 132 kts 310°
2026-04-26 00:41 33.35114 -117.53093 208 ft 132 kts 309°
2026-04-26 00:41 33.35721 -117.53915 203 ft 132 kts 309°
2026-04-26 00:42 33.36313 -117.54751 205 ft 131 kts 304°
2026-04-26 00:42 33.36809 -117.55662 215 ft 131 kts 300°
2026-04-26 00:42 33.37284 -117.56590 202 ft 132 kts 302°
2026-04-26 00:42 33.37935 -117.57392 209 ft 133 kts 300°
2026-04-26 00:43 33.38154 -117.58377 204 ft 124 kts 279°
2026-04-26 00:43 33.38490 -117.59348 207 ft 133 kts 296°
2026-04-26 00:43 33.39290 -117.59902 264 ft 130 kts 335°
2026-04-26 00:43 33.40094 -117.60403 218 ft 133 kts 324°
2026-04-26 00:44 33.40843 -117.61042 213 ft 133 kts 320°
2026-04-26 00:44 33.41552 -117.61738 208 ft 131 kts 316°
2026-04-26 00:44 33.42240 -117.62460 214 ft 132 kts 313°
2026-04-26 00:44 33.42901 -117.63219 204 ft 131 kts 311°
2026-04-26 00:45 33.43536 -117.64002 208 ft 131 kts 311°
2026-04-26 00:45 33.43951 -117.64541 209 ft 130 kts 310°
2026-04-26 00:45 33.44676 -117.65670 207 ft 128 kts 305°
2026-04-26 00:45 33.45219 -117.66522 207 ft 129 kts 305°
2026-04-26 00:46 33.45757 -117.67379 207 ft 129 kts 304°
2026-04-26 00:46 33.46073 -117.68374 164 ft 133 kts 273°
2026-04-26 00:46 33.45733 -117.69368 221 ft 128 kts 249°
2026-04-26 00:46 33.45795 -117.70436 240 ft 128 kts 279°
2026-04-26 00:47 33.45977 -117.71505 211 ft 133 kts 304°
2026-04-26 00:47 33.46750 -117.71879 207 ft 134 kts 347°
2026-04-26 00:47 33.47518 -117.72433 205 ft 134 kts 320°
2026-04-26 00:47 33.48229 -117.73161 198 ft 137 kts 315°
2026-04-26 00:48 33.49021 -117.73850 120 ft 149 kts 340°
2026-04-26 00:48 33.49870 -117.74390 198 ft 141 kts 313°
2026-04-26 00:48 33.50698 -117.75074 209 ft 145 kts 326°
2026-04-26 00:48 33.51399 -117.75901 209 ft 142 kts 314°
2026-04-26 00:49 33.52197 -117.76628 206 ft 142 kts 317°
2026-04-26 00:49 33.52941 -117.77455 158 ft 149 kts 315°
2026-04-26 00:49 33.53788 -117.78153 226 ft 148 kts 325°
2026-04-26 00:49 33.54275 -117.79127 169 ft 142 kts 286°
2026-04-26 00:50 33.54557 -117.80280 141 ft 146 kts 290°
2026-04-26 00:50 33.54953 -117.81343 292 ft 136 kts 300°
2026-04-26 00:50 33.55640 -117.82128 289 ft 143 kts 326°
2026-04-26 00:50 33.56354 -117.82926 240 ft 138 kts 307°
2026-04-26 00:51 33.57038 -117.83761 224 ft 143 kts 316°
2026-04-26 00:51 33.57629 -117.84687 212 ft 140 kts 300°
2026-04-26 00:51 33.58103 -117.85736 121 ft 144 kts 297°
2026-04-26 00:51 33.58701 -117.86675 245 ft 143 kts 308°
2026-04-26 00:52 33.59265 -117.87597 216 ft 134 kts 286°
2026-04-26 00:52 33.59521 -117.88690 193 ft 140 kts 286°
2026-04-26 00:52 33.59893 -117.89789 206 ft 143 kts 291°
2026-04-26 00:52 33.60196 -117.90926 217 ft 143 kts 283°
2026-04-26 00:53 33.60363 -117.91699 203 ft 146 kts 283°
2026-04-26 00:53 33.60675 -117.92874 117 ft 149 kts 304°
2026-04-26 00:53 33.61473 -117.93563 255 ft 142 kts 324°
2026-04-26 00:53 33.62165 -117.94404 241 ft 141 kts 299°
2026-04-26 00:54 33.62640 -117.95393 240 ft 130 kts 298°
2026-04-26 00:54 33.63065 -117.96288 223 ft 122 kts 298°
2026-04-26 00:54 33.63530 -117.97165 207 ft 127 kts 301°
2026-04-26 00:54 33.64037 -117.98036 216 ft 126 kts 302°
2026-04-26 00:55 33.64583 -117.98916 170 ft 138 kts 302°
2026-04-26 00:55 33.65164 -117.99836 206 ft 138 kts 303°
2026-04-26 00:55 33.65769 -118.00736 188 ft 142 kts 304°
2026-04-26 00:55 33.66459 -118.01583 227 ft 139 kts 312°
2026-04-26 00:56 33.67145 -118.02395 210 ft 138 kts 309°
2026-04-26 00:56 33.67834 -118.03244 216 ft 143 kts 312°
2026-04-26 00:56 33.68575 -118.04029 213 ft 142 kts 315°
2026-04-26 00:56 33.69341 -118.04773 218 ft 142 kts 317°
2026-04-26 00:57 33.70113 -118.05496 212 ft 140 kts 316°
2026-04-26 00:57 33.70814 -118.06288 213 ft 137 kts 313°
2026-04-26 00:57 33.71506 -118.07073 209 ft 136 kts 313°
2026-04-26 00:57 33.72196 -118.07849 209 ft 137 kts 312°
2026-04-26 00:58 33.72850 -118.08675 199 ft 136 kts 302°
2026-04-26 00:58 33.73328 -118.09640 212 ft 133 kts 297°
2026-04-26 00:58 33.73781 -118.10609 216 ft 132 kts 295°
2026-04-26 00:58 33.74226 -118.11569 214 ft 134 kts 302°
2026-04-26 00:59 33.74790 -118.12481 209 ft 137 kts 299°
2026-04-26 00:59 33.75214 -118.13491 211 ft 135 kts 293°
2026-04-26 00:59 33.75632 -118.14492 208 ft 134 kts 292°
2026-04-26 00:59 33.75968 -118.15531 211 ft 133 kts 286°
2026-04-26 01:00 33.76208 -118.16595 208 ft 132 kts 282°
2026-04-26 01:00 33.76298 -118.17688 189 ft 132 kts 266°
2026-04-26 01:00 33.75907 -118.18670 235 ft 129 kts 244°
2026-04-26 01:00 33.75961 -118.19750 216 ft 136 kts 280°
2026-04-26 01:01 33.76564 -118.20662 237 ft 139 kts 307°
2026-04-26 01:01 33.76805 -118.21718 271 ft 124 kts 265°
2026-04-26 01:01 33.76604 -118.22682 252 ft 116 kts 253°
2026-04-26 01:01 33.76437 -118.23615 241 ft 110 kts 266°
2026-04-26 01:02 33.76462 -118.24544 233 ft 106 kts 263°
2026-04-26 01:02 33.76422 -118.25398 203 ft 105 kts 280°
2026-04-26 01:02 33.76874 -118.26054 233 ft 105 kts 321°
2026-04-26 01:02 33.77472 -118.26514 216 ft 104 kts 317°
2026-04-26 01:03 33.77623 -118.27206 242 ft 77 kts 251°
2026-04-26 01:03 33.77185 -118.27425 247 ft 75 kts 182°
2026-04-26 01:03 33.76682 -118.27271 199 ft 90 kts 192°
2026-04-26 01:03 33.76060 -118.27461 200 ft 97 kts 197°
2026-04-26 01:04 33.75373 -118.27274 203 ft 110 kts 162°
2026-04-26 01:04 33.74954 -118.26641 241 ft 92 kts 113°
2026-04-26 01:04 33.74657 -118.25883 213 ft 115 kts 111°
2026-04-26 01:04 33.74510 -118.24891 199 ft 122 kts 121°
2026-04-26 01:05 33.73898 -118.24396 219 ft 99 kts 180°
2026-04-26 01:05 33.73396 -118.24676 222 ft 77 kts 248°
2026-04-26 01:05 33.73194 -118.25356 191 ft 96 kts 249°
2026-04-26 01:05 33.72989 -118.26193 190 ft 115 kts 261°
2026-04-26 01:06 33.72773 -118.27132 223 ft 117 kts 242°
2026-04-26 01:06 33.72103 -118.27623 220 ft 114 kts 206°
2026-04-26 01:06 33.71362 -118.27953 200 ft 117 kts 206°
2026-04-26 01:06 33.70669 -118.28494 173 ft 128 kts 232°
2026-04-26 01:07 33.70452 -118.29541 203 ft 134 kts 282°
2026-04-26 01:07 33.70902 -118.30543 242 ft 134 kts 299°
2026-04-26 01:07 33.71357 -118.31509 205 ft 130 kts 290°
2026-04-26 01:07 33.71712 -118.32479 204 ft 129 kts 290°
2026-04-26 01:08 33.72065 -118.33463 210 ft 128 kts 290°
2026-04-26 01:08 33.72425 -118.34459 212 ft 131 kts 290°
2026-04-26 01:08 33.72787 -118.35458 221 ft 129 kts 290°
2026-04-26 01:08 33.73088 -118.36468 217 ft 127 kts 286°
2026-04-26 01:09 33.73367 -118.37467 213 ft 126 kts 285°
2026-04-26 01:09 33.73538 -118.38490 208 ft 125 kts 278°
2026-04-26 01:09 33.73642 -118.39523 203 ft 124 kts 270°
2026-04-26 01:09 33.73820 -118.40538 205 ft 127 kts 287°
2026-04-26 01:10 33.74355 -118.41346 207 ft 133 kts 347°
2026-04-26 01:10 33.75241 -118.41612 213 ft 134 kts 338°
2026-04-26 01:10 33.76081 -118.42009 237 ft 115 kts 327°
2026-04-26 01:10 33.76753 -118.42517 209 ft 121 kts 324°
2026-04-26 01:11 33.77501 -118.42991 217 ft 104 kts 54°
2026-04-26 01:11 33.78111 -118.42529 210 ft 118 kts 48°
2026-04-26 01:11 33.78705 -118.41774 202 ft 131 kts 60°
2026-04-26 01:11 33.79417 -118.41050 218 ft 135 kts 34°
2026-04-26 01:12 33.80131 -118.40325 194 ft 137 kts 68°
2026-04-26 01:12 33.80685 -118.39425 204 ft 132 kts 34°
2026-04-26 01:12 33.81542 -118.39172 132 ft 120 kts
2026-04-26 01:12 33.82299 -118.39112 152 ft 101 kts 357°
2026-04-26 01:13 33.82927 -118.39119 140 ft 80 kts 356°
2026-04-26 01:13 33.83423 -118.39105 131 ft 61 kts 353°
2026-04-26 01:13 33.83745 -118.39257 125 ft 41 kts 348°
2026-04-26 01:13 33.84074 -118.39441 118 ft 72 kts 346°
2026-04-26 01:14 33.84584 -118.39687 136 ft 80 kts 332°
2026-04-26 01:14 33.85164 -118.39974 125 ft 110 kts 332°
2026-04-26 01:14 33.85939 -118.40373 143 ft 126 kts 332°
2026-04-26 01:14 33.86830 -118.40720 119 ft 141 kts 340°
2026-04-26 01:15 33.87762 -118.41037 134 ft 135 kts 339°
2026-04-26 01:15 33.88611 -118.41435 141 ft 128 kts 332°
2026-04-26 01:15 33.89387 -118.41848 132 ft 119 kts 330°
2026-04-26 01:15 33.90166 -118.42234 114 ft 118 kts 333°
2026-04-26 01:16 33.90886 -118.42582 135 ft 119 kts 333°
2026-04-26 01:16 33.91636 -118.42937 154 ft 109 kts 333°
2026-04-26 01:16 33.92296 -118.43252 156 ft 96 kts 330°
2026-04-26 01:16 33.92882 -118.43592 149 ft 91 kts 328°
2026-04-26 01:17 33.93462 -118.43913 132 ft 93 kts 331°
2026-04-26 01:17 33.94052 -118.44220 137 ft 91 kts 328°
2026-04-26 01:17 33.94617 -118.44543 123 ft 90 kts 328°
2026-04-26 01:17 33.95171 -118.44877 128 ft 89 kts 326°
2026-04-26 01:18 33.95717 -118.45221 126 ft 88 kts 326°
2026-04-26 01:18 33.96230 -118.45600 139 ft 86 kts 322°
2026-04-26 01:18 33.96727 -118.45975 337 ft 85 kts 322°
2026-04-26 01:18 33.97321 -118.46455 478 ft 119 kts 322°
2026-04-26 01:19 33.98078 -118.47087 490 ft 145 kts 323°
2026-04-26 01:19 33.99075 -118.47492 521 ft 161 kts
2026-04-26 01:19 33.99922 -118.46794 539 ft 155 kts 56°
2026-04-26 01:19 34.00433 -118.45586 570 ft 163 kts 65°
2026-04-26 01:20 34.00929 -118.44395 631 ft 155 kts 65°
2026-04-26 01:20 34.01394 -118.43251 718 ft 151 kts 65°
2026-04-26 01:20 34.01857 -118.42132 663 ft 141 kts 65°
2026-04-26 01:20 34.02303 -118.41101 592 ft 139 kts 63°
2026-04-26 01:21 34.02810 -118.40090 637 ft 143 kts 61°
2026-04-26 01:21 34.03289 -118.38917 632 ft 164 kts 65°
2026-04-26 01:21 34.03719 -118.37615 594 ft 168 kts 95°
2026-04-26 01:21 34.03542 -118.36227 644 ft 168 kts 104°
2026-04-26 01:22 34.03439 -118.34801 643 ft 175 kts 94°
2026-04-26 01:22 34.03512 -118.33284 527 ft 184 kts 85°
2026-04-26 01:22 34.03690 -118.31753 558 ft 188 kts 85°
2026-04-26 01:22 34.03779 -118.30142 622 ft 193 kts 90°
2026-04-26 01:23 34.03783 -118.28570 462 ft 179 kts 92°
2026-04-26 01:23 34.03513 -118.27421 435 ft 110 kts 200°
2026-04-26 01:23 34.02592 -118.27536 391 ft 162 kts 200°
2026-04-26 01:23 34.01475 -118.28082 389 ft 183 kts 194°
2026-04-26 01:24 34.00186 -118.28089 454 ft 187 kts 182°
2026-04-26 01:24 33.98859 -118.28013 435 ft 196 kts 181°
2026-04-26 01:24 33.97546 -118.28063 574 ft 181 kts 184°
2026-04-26 01:24 33.96255 -118.28083 577 ft 183 kts 184°
2026-04-26 01:25 33.95004 -118.28022 576 ft 178 kts 177°
2026-04-26 01:25 33.93782 -118.27941 549 ft 172 kts 183°
2026-04-26 01:25 33.92605 -118.28117 521 ft 169 kts 192°
2026-04-26 01:25 33.91518 -118.28566 524 ft 163 kts 198°
2026-04-26 01:26 33.90414 -118.28685 522 ft 158 kts 182°
2026-04-26 01:26 33.89395 -118.29104 502 ft 156 kts 223°
2026-04-26 01:26 33.88927 -118.30243 507 ft 157 kts 261°
2026-04-26 01:26 33.88765 -118.31516 509 ft 151 kts 253°
2026-04-26 01:27 33.88414 -118.32695 513 ft 150 kts 246°
2026-04-26 01:27 33.87952 -118.33811 511 ft 148 kts 244°
2026-04-26 01:27 33.87528 -118.34934 506 ft 147 kts 246°
2026-04-26 01:27 33.87093 -118.36044 504 ft 146 kts 246°
2026-04-26 01:28 33.86697 -118.37170 501 ft 146 kts 248°
2026-04-26 01:28 33.86306 -118.38294 489 ft 145 kts 246°
2026-04-26 01:28 33.85852 -118.39391 489 ft 147 kts 242°
2026-04-26 01:28 33.85534 -118.40313 834 ft 84 kts 263°
2026-04-26 01:29 33.85293 -118.41053 1100 ft 113 kts 240°
2026-04-26 01:29 33.84621 -118.41650 292 ft 123 kts 206°
2026-04-26 01:29 33.84006 -118.41930 335 ft 13 kts 201°
2026-04-26 01:29 33.83979 -118.41954 396 ft 1 kts 192°
2026-04-26 01:30 33.83986 -118.41952 243 ft 1 kts 192°
2026-04-26 01:30 33.83989 -118.41950 161 ft 1 kts 192°
2026-04-26 01:30 33.83989 -118.41954 165 ft 0 kts
2026-04-26 01:30 33.83991 -118.41953 165 ft 1 kts 11°
2026-04-26 01:31 33.84073 -118.41895 149 ft 67 kts 27°
2026-04-26 01:31 33.84481 -118.41093 158 ft 144 kts 52°
2026-04-26 01:31 33.85372 -118.40513 161 ft 151 kts
2026-04-26 01:31 33.86331 -118.40720 188 ft 132 kts 340°
2026-04-26 01:32 33.87155 -118.41007 169 ft 121 kts 339°
2026-04-26 01:32 33.87962 -118.41311 166 ft 121 kts 336°
2026-04-26 01:32 33.88755 -118.41658 167 ft 122 kts 335°
2026-04-26 01:32 33.89555 -118.41996 167 ft 122 kts 335°
2026-04-26 01:33 33.90351 -118.42349 167 ft 122 kts 335°
2026-04-26 01:33 33.91134 -118.42707 169 ft 122 kts 334°
2026-04-26 01:33 33.91891 -118.42982 283 ft 97 kts 62°
2026-04-26 01:33 33.92405 -118.42306 536 ft 110 kts 64°
2026-04-26 01:34 33.92657 -118.41542 356 ft 79 kts 81°
2026-04-26 01:34 33.92849 -118.41177 304 ft 17 kts 33°
2026-04-26 01:34 33.92957 -118.40921 255 ft 39 kts 37°
2026-04-26 01:34 33.93067 -118.40650 261 ft 39 kts 37°
2026-04-26 01:35 33.93211 -118.40504 203 ft 15 kts 29°
2026-04-26 01:35 33.93250 -118.40517 107 ft 1 kts 360°
2026-04-26 01:35 33.93252 -118.40515 96 ft 0 kts
2026-04-26 01:35 33.93253 -118.40515 93 ft 0 kts